Location: Kershaw
(34.5481°N, 80.5823°W)
Time: 20:13:11
(UTC+00:00)

Vanguard 2 Rocket - Pass Details

Date: 07 October 2022
Orbit: 555 x 3321 km, 32.9° (Epoch: 28 November)

Event Time Altitude Azimuth Distance (km) Brightness Sun altitude
Rises 01:50:46 0° 233° (SW) 7,300 11.9 -35.6°
Reaches altitude 10° 01:55:54 10° 230° (SW) 6,242 11.4 -36.6°
Enters shadow 02:13:52 59° 169° (SSE) 3,014 9.1 -40.0°
